Regional Weather Roundup
Issued by NWS Wakefield, VA

Home | Current Version | Previous Version | Text Only | Print | Product List | Glossary Off
Versions: 1 2 3 4 5 6 7 8 9 10 11 12 13 14 15 16 17 18 19 20 21 22 23 24 25 26 27 28 29 30 31 32 33 34 35 36 37 38 39 40 41 42 43 44 45 46 47 48 49 50

000
ASUS41 KAKQ 060010
RWRAKQ

REGIONAL WEATHER ROUNDUP
NATIONAL WEATHER SERVICE WAKEFIELD VA
700 PM EST THU MAR 05 2015

Note: "fair" indicates few or no clouds below 12,000 feet with no
significant weather and/or obstructions to visibility. * = Denotes
station may not report precipitation (e.g., rain,snow,etc.),
thunder or fog.

VAZ042-051-052>054-056-060100-
NORTHERN VIRGINIA

CITY           SKY/WX    TMP DP  RH WIND       PRES   REMARKS
WASH NATIONAL  LGT SNOW  27  20  75 N16G23    30.32R WCI  15
DULLES         LGT SNOW  24  19  81 N9        30.32R
FORT BELVOIR   FLURRIES  25  21  86 NW13G18   30.33R WCI  13
QUANTICO       CLOUDY    26  21  81 N12G22    30.33R WCI  16
FREDERICKSBRG* MIX PCPN  27  26  94 N7        30.31S
STAFFORD*      CLOUDY    25  25 100 CALM      30.35S
WARRENTON      CLOUDY    26  25  94 N13       30.32R WCI  15
CULPEPER*      FLURRIES  27  21  80 N7        30.31R
MANASSAS*      FLURRIES  25  23  93 N12       30.32  WCI  14
LEESBURG*      CLOUDY    27  21  80 N7        30.33R
WINCHESTER     FLURRIES  23  10  58 N5G17     30.31R
FRONT ROYAL*   CLOUDY    23  18  80 N5        30.30R
LURAY*         CLOUDY    27  25  93 CALM      30.29R
$$

VAZ048-049-060>072-079>083-060100-
CENTRAL AND SOUTH CENTRAL VIRGINIA

CITY           SKY/WX    TMP DP  RH WIND       PRES   REMARKS
RICHMOND       LGT SNOW  28  24  85 N16G23    30.29R VSB 3/4 WCI  16
CHESTERFIELD*  CLOUDY    28  16  59 N12       30.30R WCI  18
PETERSBURG*    LGT SNOW  31  29  93 N9        30.28R
HANOVER        LGT SNOW  27  25  92 VRB6      30.30R FOG
TAPPAHANNOCK*  LGT SNOW  28  26  89 NW7       30.29R VSB 3/4
QUINTON*       CLOUDY    28  26  94 NW7       30.28R
CHARLOTTSVILLE FLURRIES  26  21  81 N3        30.28R
GORDONSVILLE*  CLOUDY    25  19  78 N7        30.30R
ORANGE*        CLOUDY    28  23  80 NW9       30.31R
LOUISA*        CLOUDY    27  21  80 N8        30.27S
BUMPASS*       CLOUDY    25  22  88 N7        30.28S
FARMVILLE*     CLOUDY    30  30 100 N7          N/A
CREWE*         CLOUDY    28  26  91 N8        30.28R
FORT PICKETT*  CLOUDY    28  27  96 N9G16     30.28R
CHASE CITY*    CLOUDY    32  31  98 N10G18    30.26R WCI  24
CLARKSVILLE*   CLOUDY    32  30  93 N12G17    30.23R WCI  23
SOUTH HILL*    CLOUDY    30  28  90 N17G25    30.30R WCI  18
LAWRENCEVILLE* CLOUDY    31  29  93 N12G18    30.24R WCI  22
EMPORIA*       FLURRIES  32  30  93 NW14G23   30.26R WCI  22
$$

VAZ088>098-060100-
SOUTHEAST VIRGINIA

CITY           SKY/WX    TMP DP  RH WIND       PRES   REMARKS
NORFOLK        MIX PCPN  33  30  88 N18G29    30.19R WCI  22
VIRGINIA BEACH LGTSLEET  35  32  88 N13G22    30.19R FOG
NORFOLK NAVAL  CLOUDY    35  29  78 N21G37    30.23R WCI  24
WEST POINT*    CLOUDY    33  30  89 N7        30.28R
SALUDA*        CLOUDY    30  27  88 N18       30.25R WCI  18
NEWPORT NEWS   CLOUDY    35  29  78 N12G24    30.24R
LANGLEY AFB    CLOUDY    32  30  93 N15G22    30.22R WCI  22
FORT EUSTIS    DRIZZLE   32  32 100 NE13G24   30.23R WCI  22
WILLIAMSBURG*  CLOUDY    34  34 100 N9G17     30.25R
HR EXEC AP*    CLOUDY    34  30  86 N9        30.23R
FRANKLIN*      CLOUDY    33  31  93 N10G23    30.24R WCI  24
WAKEFIELD      MIX PCPN  32  28  85 N14       30.25R WCI  22
$$

VAZ020-022-025-037-045-060100-
WEST CENTRAL AND SOUTHWEST VIRGINIA

CITY           SKY/WX    TMP DP  RH WIND       PRES   REMARKS
STAUNTON*      CLOUDY    24  20  84 N8        30.28R
WAYNESBORO*    CLOUDY    22  19  90 N6        30.24R
HOT SPRINGS VA CLOUDY    17  17 100 CALM      30.08R
LYNCHBURG      LGT SNOW  29  28  96 NE13      30.24S FOG     WCI  19
DANVILLE       CLOUDY    33  28  81 NE15      30.24R WCI  23
SOUTH BOSTON*  CLOUDY    31  29  92 N6        30.26R
MARTINSVILLE   CLOUDY    33  31  94 N10       30.25S WCI  24
ROANOKE        CLOUDY    30  22  72 N5        30.27R
BLACKSBURG     CLOUDY    24  19  80 W6        30.24R
DUBLIN*        CLOUDY    26  22  86 N7        30.24R
MARION*        CLOUDY    24  18  78 W8        30.25R
HILLSVILLE*    CLOUDY    25  22  88 NW13      30.17R WCI  13
RICHLANDS*     CLOUDY    18  14  84 NW7       30.26R
WISE*          LGT SNOW  19  19 100 N6        30.30R
ABINGDON*      CLOUDY    25  20  83 N7        30.29R
$$

MDZ021>025-VAZ099-100-060100-
SOUTHERN MARYLAND AND THE DELMARVA PENINSULA

CITY           SKY/WX    TMP DP  RH WIND       PRES   REMARKS
PATUXENT RIVER LGT SNOW  26  22  84 N16       30.30R FOG     WCI  14
BAY BRIDGE APT   N/A     25  19  80 N12G20    30.32R WCI  14
LEONARDTOWN    CLOUDY    27  23  86 CALM      30.31R
DOVER          LGT SNOW  21  21 100 NW16      30.28R FOG     WCI   7
GEORGETOWN     CLOUDY    23  19  85 N10G20    30.28R FOG     WCI  12
EASTON         FLURRIES  25  25 100 N6        30.34R
CAMBRIDGE      CLOUDY    27  23  86 N12       30.30R WCI  16
SALISBURY      HAZE      26  21  81 N18G28    30.26R VSB 3/4 WCI  13
OCEAN CITY     LGT SNOW  25  23  92 N12G25    30.23R FOG     WCI  14
WALLOPS ISLAND MIX PCPN  28  24  85 N16G25    30.22R WCI  16
ACCOMACK*      MIX PCPN  30  27  86 N17G23    30.21R WCI  18
$$

NCZ012>017-030>032-060100-
NORTH CENTRAL AND EASTERN NORTH CAROLINA

CITY           SKY/WX    TMP DP  RH WIND       PRES   REMARKS
ROANOKE RAPIDS LGT RAIN  34  32  93 N13G23    30.24R WCI  25
RALEIGH        LGT RAIN  35  31  85 NE10G21   30.19R FOG
ELIZABETH CITY RAIN      35  33  92 N18G28    30.16R WCI  24
AHOSKIE*       CLOUDY    34  32  93 N9G16     30.23R
EDENTON*       LGT RAIN  35  34  96 N10       30.15R
CURRITUCK*     MIX PCPN  35  33  93 N18G26    30.17R WCI  24
KILL DEVIL HLS LGT RAIN  37  37 100 N13G20    30.09R
MANTEO         LGT RAIN  38  37  96 E14G24    30.08F
CAPE HATTERAS  LGT RAIN  37  36  96 N17G31    30.09R FOG
TARBORO*       CLOUDY    36  34  92 N8G17     30.22R
GOLDSBORO      LGT RAIN  37  37 100 N13       30.12R
WASHINGTON     RAIN      36  35  96 N12       30.16R
GREENVILLE     DRIZZLE   36  36 100 N14G20    30.20R
NEW BERN       RAIN      39  36  89 NE9       30.10R FOG
WILMINGTON     LGT RAIN  42  38  85 E13       30.03F
$$

VAZ048-060100-
ELSEWHERE

CITY           SKY/WX    TMP DP  RH WIND       PRES   REMARKS
HARRISBURG PA  CLOUDY    21  13  71 NW6       30.32R
BALTIMORE      CLOUDY    23  17  78 NW6       30.31R
ANNAPOLIS      CLOUDY    25  19  78 N14       30.31R WCI  13
ANDREWS AFB    FLURRIES  24  20  86 N12       30.29R WCI  12
PHILADELPHIA   CLOUDY    21  13  71 N10       30.31R WCI  10
HENDERSON NC   MIX PCPN  32  30  94 CALM      30.20S
GREENSBORO     LGT SNOW  34  31  88 NE14G22   30.21R FOG     WCI  25
ROCKY MOUNT    CLOUDY    36  34  92 N14G24    30.20R
$$

VAZ100-060100-
MARINE

STATION/POSITION TIME  TEMP    WIND        PRES    WAVE   SWELL
                       AIR SEA DIR/SP/G            HT/PER HT/PER
                 (UTC) (F)     (DEG/KT/KT) (MB)    (FT/S) (FT/S)
BRANDYWINE LGT   0000   23 30  350/ 25/ 28 1024.3R
CAPE MAY NJ      0000   22 34   10/  8/ 16 1022.6F
LEWES DE         0000   24 32  350/ 17/ 22 1024.1R
15NM E FENWICK I 0000   28 35              1022.0R   6/ 6
OCEAN-CITY-INLET 0000   27 33  360/ 19/ 25 1023.2R
WACHAPREAGUE VA  0000   30 39  360/ 11/ 23 1022.9R
THOMAS POINT MD  0000          140/ 13/ 14   N/A
COVE POINT MD    0000   24      20/ 12/ 15 1025.1R
SOLOMONS ISLAND  0000      33                N/A
BISHOPS HEAD MD  0000   24 32  360/ 12/ 18 1024.8R
CAMBRIDGE MD     0000   24 32  360/ 12/ 15 1025.6R
LEWISETTA VA     0000   27 33  360/  9/ 15 1024.9R
RAPPAHANNOCK LGT 0000          360/ 24/ 27 1023.3R
STINGRAY PT      0000   30      10/ 21/ 25   N/A
YORK RVR RNG VA  0000   32      10/ 23/ 26 1022.4R
YORKTOWN VA      0000   32 35  350/ 14/ 21 1023.8R
DOMINION TERM VA 0000   33     360/ 14/ 20 1022.9R
KIPTOPEKE VA     0000      39  360/ 15/ 18   N/A
CHES BAY BRIDGE  0000   32 34  350/ 23/ 27 1021.8R
CAPE HENRY VA    0000   32     350/ 19/ 22 1020.3S
CHESAPEAKE LGHT  2300   33      20/ 26/ 28 1020.2R
WILLOUBY STN VA  0000   32     360/ 22/ 28 1023.1R
S CRANEY ISL VA  0000          360/ 22/ 26 1022.2R
CAPE HENRY BUOY  0000      35                N/A     7/ 7
1ST LANDING BUOY 0000   33     350/ 19/ 23 1021.4R
OFFSHORE WE BUOY 0000      37                N/A     8/ 7   3/17
64NM E OF VA BCH 0000   46 52   80/ 23/ 27 1016.0F  10/ 8   7/ 8
DUCK PIER NC     0000   35 36  360/ 21/ 25 1018.8R
44100 DUCK FRF   2300      39                N/A     9/ 7   2/11
44056 DUCK FRF   0000      35                N/A     8/ 8   2/11
OREGON INLET NC  0000   38 47   40/ 12/ 21 1018.5F
HATTERAS NC      0000      52   10/ 29/ 33 1019.2R
CAPE LOOKOUT NC  2300          360/ 23/ 30 1018.4R
$$


USA.gov is the U.S. government's official web portal to all federal, state and local government web resources and services.